| time (UTC) | temp C | wind direction | speed KPH | gust KPH | rain 1hr cm | rain 24hr cm | rain mn cm | humidity % | barometer mb |
| 20260906161404 | 10 | 113 | 14.5 | 38.6 | 1.17 | 5.36 | 1.83 | 91 | 997.2 |
| 20260906160904 | 10 | 120 | 8.0 | 32.2 | 1.02 | 5.21 | 1.68 | 92 | 997.3 |
| 20260906160404 | 10 | 108 | 14.5 | 38.6 | 0.97 | 5.13 | 1.60 | 91 | 997.3 |
| 20260906155904 | 11 | 93 | 16.1 | 32.2 | 0.89 | 5.03 | 1.52 | 92 | 997.0 |
| 20260906155404 | 11 | 132 | 14.5 | 38.6 | 0.79 | 4.93 | 1.40 | 91 | 997.1 |
| 20260906154903 | 11 | 90 | 11.3 | 32.2 | 0.71 | 4.83 | 1.30 | 91 | 997.1 |
| 20260906154404 | 11 | 98 | 14.5 | 37.0 | 0.66 | 4.75 | 1.22 | 91 | 997.1 |
| 20260906153904 | 12 | 84 | 14.5 | 41.8 | 0.58 | 4.65 | 1.12 | 92 | 997.2 |
| 20260906153404 | 13 | 74 | 14.5 | 32.2 | 0.46 | 4.50 | 0.99 | 92 | 997.4 |
| 20260906152904 | 13 | 79 | 1.6 | 11.3 | 0.33 | 4.37 | 0.84 | 92 | 996.8 |
| 20260906151904 | 13 | 106 | 3.2 | 19.3 | 0.28 | 4.24 | 0.71 | 92 | 996.7 |
| 20260906151404 | 13 | 104 | 3.2 | 19.3 | 0.25 | 4.19 | 0.69 | 92 | 996.8 |
| 20260906150904 | 13 | 92 | 4.8 | 14.5 | 0.25 | 4.19 | 0.66 | 92 | 997.0 |
| 20260906145903 | 13 | 130 | 4.8 | 12.9 | 0.25 | 4.14 | 0.61 | 92 | 997.1 |
| 20260906145404 | 13 | 112 | 4.8 | 12.9 | 0.28 | 4.11 | 0.61 | 92 | 997.3 |
| 20260906144905 | 13 | 106 | 4.8 | 19.3 | 0.30 | 4.11 | 0.61 | 92 | 997.5 |
| 20260906143404 | 13 | 78 | 3.2 | 11.3 | 0.28 | 4.04 | 0.51 | 92 | 998.0 |
| 20260906142905 | 13 | 68 | 3.2 | 14.5 | 0.28 | 4.01 | 0.51 | 92 | 998.1 |
| 20260906141904 | 13 | 77 | 1.6 | 4.8 | 0.25 | 3.96 | 0.43 | 92 | 998.3 |
| 20260906141404 | 13 | 78 | 0.0 | 1.6 | 0.25 | 3.94 | 0.43 | 92 | 998.5 |
| 20260906140904 | 13 | 110 | 0.0 | 4.8 | 0.28 | 3.91 | 0.41 | 92 | 998.6 |
| 20260906140404 | 13 | 118 | 1.6 | 3.2 | 0.30 | 3.91 | 0.38 | 92 | 998.7 |
| 20260906135905 | 13 | 30 | 1.6 | 3.2 | 0.30 | 3.89 | 0.36 | 92 | 998.9 |
| 20260906135404 | 13 | 25 | 0.0 | 1.6 | 0.28 | 3.84 | 0.33 | 92 | 999.0 |
| 20260906134904 | 13 | 25 | 0.0 | 3.2 | 0.25 | 3.81 | 0.30 | 91 | 999.1 |
| 20260906134404 | 13 | 25 | 1.6 | 3.2 | 0.23 | 3.81 | 0.28 | 92 | 999.2 |
| 20260906133903 | 13 | 28 | 1.6 | 4.8 | 0.23 | 3.78 | 0.25 | 92 | 999.3 |
| 20260906133404 | 13 | 11 | 3.2 | 4.8 | 0.20 | 3.76 | 0.23 | 91 | 999.4 |
| 20260906132904 | 13 | 1 | 1.6 | 4.8 | 0.20 | 3.73 | 0.23 | 91 | 999.5 |
| 20260906132404 | 13 | 4 | 1.6 | 4.8 | 0.18 | 3.71 | 0.20 | 91 | 999.7 |
| 20260906131905 | 13 | 347 | 1.6 | 4.8 | 0.15 | 3.71 | 0.18 | 91 | 999.7 |
| 20260906130904 | 13 | 353 | 8.0 | 16.1 | 0.10 | 3.63 | 0.13 | 92 | 999.9 |
| 20260906130403 | 13 | 1 | 8.0 | 16.1 | 0.08 | 3.61 | 0.08 | 92 | 999.9 |
| 20260906125907 | 13 | 342 | 4.8 | 19.3 | 1.83 | 3.58 | 0.05 | 92 | 999.9 |
| 20260906125410 | 14 | 353 | 8.0 | 16.1 | 1.80 | 3.56 | 0.05 | 92 | 999.8 |
| 20260906124908 | 13 | 0 | 8.0 | 16.1 | 1.80 | 3.56 | 0.05 | 92 | 999.8 |
| 20260906123907 | 14 | 344 | 8.0 | 19.3 | 1.83 | 3.56 | 0.05 | 92 | 999.9 |
| 20260906123406 | 14 | 355 | 6.4 | 19.3 | 1.85 | 3.56 | 0.05 | 92 | 999.9 |
| 20260906122908 | 14 | 348 | 4.8 | 16.1 | 1.85 | 3.53 | 0.03 | 92 | 999.9 |
| 20260906121407 | 14 | 350 | 8.0 | 19.3 | 1.88 | 3.53 | 0.03 | 92 | 1000.0 |
| 20260906120907 | 14 | 342 | 8.0 | 19.3 | 1.91 | 3.53 | 0.03 | 92 | 1000.0 |
| 20260906120407 | 14 | 350 | 8.0 | 19.3 | 1.88 | 3.53 | 0.00 | 92 | 1000.0 |
| 20260906115408 | 14 | 349 | 8.0 | 19.3 | 0.15 | 1.75 | 1.75 | 91 | 1000.1 |
| 20260906114907 | 14 | 350 | 9.7 | 19.3 | 0.15 | 1.75 | 1.75 | 91 | 1000.2 |
| 20260906114407 | 14 | 0 | 6.4 | 19.3 | 0.15 | 1.75 | 1.75 | 91 | 1000.3 |
| 20260906113907 | 14 | 330 | 9.7 | 19.3 | 0.15 | 1.75 | 1.75 | 91 | 1000.2 |
| 20260906113407 | 14 | 336 | 8.0 | 19.3 | 0.20 | 1.73 | 1.73 | 91 | 1000.3 |
| 20260906112907 | 14 | 337 | 6.4 | 19.3 | 0.18 | 1.68 | 1.68 | 91 | 1000.4 |
| 20260906112407 | 14 | 347 | 6.4 | 19.3 | 0.20 | 1.68 | 1.68 | 91 | 1000.4 |
| 20260906111907 | 14 | 354 | 4.8 | 16.1 | 0.18 | 1.65 | 1.65 | 91 | 1000.5 |
| 20260906111407 | 14 | 347 | 8.0 | 20.9 | 0.18 | 1.65 | 1.65 | 91 | 1000.5 |
| 20260906110906 | 13 | 347 | 6.4 | 19.3 | 0.15 | 1.65 | 1.65 | 91 | 1000.7 |
| 20260906104907 | 14 | 351 | 11.3 | 25.7 | 0.18 | 1.63 | 1.63 | 91 | 1001.0 |
| 20260906104407 | 14 | 348 | 14.5 | 27.4 | 0.15 | 1.60 | 1.60 | 91 | 1001.1 |
| 20260906103407 | 14 | 353 | 16.1 | 27.4 | 0.10 | 1.52 | 1.52 | 91 | 1001.1 |
| 20260906102907 | 14 | 354 | 16.1 | 27.4 | 0.08 | 1.50 | 1.50 | 91 | 1001.2 |
| 20260906102406 | 14 | 344 | 11.3 | 32.2 | 0.08 | 1.47 | 1.47 | 91 | 1001.2 |
| 20260906101907 | 14 | 345 | 12.9 | 32.2 | 0.08 | 1.47 | 1.47 | 91 | 1001.3 |
| 20260906101406 | 14 | 352 | 11.3 | 24.1 | 0.08 | 1.47 | 1.47 | 91 | 1001.3 |
| 20260906100906 | 14 | 352 | 11.3 | 32.2 | 0.08 | 1.47 | 1.47 | 91 | 1001.3 |
| 20260906095907 | 14 | 342 | 11.3 | 29.0 | 0.08 | 1.45 | 1.45 | 91 | 1001.3 |
| 20260906095407 | 14 | 350 | 11.3 | 25.7 | 0.08 | 1.45 | 1.45 | 91 | 1001.3 |
| 20260906094907 | 14 | 353 | 11.3 | 24.1 | 0.08 | 1.45 | 1.45 | 91 | 1001.4 |
| 20260906094407 | 14 | 324 | 12.9 | 27.4 | 0.08 | 1.45 | 1.45 | 91 | 1001.5 |
| 20260906093911 | 14 | 342 | 9.7 | 24.1 | 0.05 | 1.42 | 1.42 | 91 | 1001.6 |
| 20260906092907 | 14 | 350 | 12.9 | 33.8 | 0.08 | 1.42 | 1.42 | 91 | 1001.6 |
| 20260906092407 | 14 | 339 | 11.3 | 32.2 | 0.08 | 1.40 | 1.40 | 91 | 1001.6 |
| 20260906091907 | 14 | 338 | 9.7 | 22.5 | 0.08 | 1.40 | 1.40 | 91 | 1001.7 |
| 20260906091407 | 14 | 353 | 16.1 | 27.4 | 0.10 | 1.40 | 1.40 | 91 | 1001.6 |
| 20260906090908 | 14 | 340 | 16.1 | 32.2 | 0.10 | 1.40 | 1.40 | 91 | 1001.6 |
| 20260906090406 | 14 | 342 | 17.7 | 32.2 | 0.08 | 1.37 | 1.37 | 91 | 1001.6 |
| 20260906085907 | 14 | 332 | 17.7 | 37.0 | 0.08 | 1.37 | 1.37 | 91 | 1001.6 |
| 20260906084907 | 14 | 346 | 20.9 | 35.4 | 0.05 | 1.37 | 1.37 | 91 | 1001.6 |
| 20260906084407 | 14 | 345 | 19.3 | 45.1 | 0.08 | 1.37 | 1.37 | 91 | 1001.5 |
| 20260906083908 | 15 | 337 | 19.3 | 38.6 | 0.08 | 1.37 | 1.37 | 91 | 1001.5 |
| 20260906083407 | 15 | 341 | 17.7 | 41.8 | 0.05 | 1.35 | 1.35 | 91 | 1001.4 |
| 20260906082907 | 15 | 353 | 20.9 | 38.6 | 0.08 | 1.35 | 1.35 | 91 | 1001.4 |
| 20260906082407 | 15 | 342 | 20.9 | 41.8 | 0.10 | 1.32 | 1.32 | 91 | 1001.4 |
| 20260906081908 | 15 | 348 | 20.9 | 38.6 | 0.13 | 1.32 | 1.32 | 91 | 1001.4 |
| 20260906081407 | 15 | 341 | 17.7 | 38.6 | 0.13 | 1.30 | 1.30 | 91 | 1001.5 |
| 20260906080907 | 15 | 352 | 19.3 | 45.1 | 0.13 | 1.30 | 1.30 | 91 | 1001.5 |
| 20260906080407 | 15 | 342 | 24.1 | 40.2 | 0.13 | 1.30 | 1.30 | 91 | 1001.6 |
| 20260906075907 | 15 | 343 | 20.9 | 35.4 | 0.15 | 1.30 | 1.30 | 91 | 1001.5 |
| 20260906075408 | 15 | 344 | 20.9 | 41.8 | 0.15 | 1.30 | 1.30 | 91 | 1001.5 |
| 20260906074907 | 15 | 348 | 20.9 | 41.8 | 0.15 | 1.30 | 1.30 | 91 | 1001.6 |
| 20260906074408 | 15 | 356 | 25.7 | 45.1 | 0.15 | 1.27 | 1.27 | 91 | 1001.6 |
| 20260906073907 | 15 | 345 | 22.5 | 38.6 | 0.20 | 1.27 | 1.27 | 91 | 1001.7 |
| 20260906072907 | 15 | 346 | 24.1 | 41.8 | 0.20 | 1.27 | 1.27 | 91 | 1001.7 |
| 20260906072407 | 15 | 348 | 24.1 | 40.2 | 0.18 | 1.22 | 1.22 | 91 | 1001.8 |
| 20260906071907 | 15 | 348 | 22.5 | 48.3 | 0.15 | 1.19 | 1.19 | 91 | 1001.8 |
| 20260906071407 | 15 | 346 | 20.9 | 45.1 | 0.15 | 1.17 | 1.17 | 91 | 1001.8 |
| 20260906070407 | 15 | 357 | 29.0 | 48.3 | 0.15 | 1.17 | 1.17 | 91 | 1002.0 |
| 20260906065907 | 15 | 341 | 22.5 | 45.1 | 0.13 | 1.17 | 1.17 | 91 | 1001.9 |
| 20260906065407 | 15 | 350 | 25.7 | 46.7 | 0.10 | 1.14 | 1.14 | 91 | 1001.8 |
| 20260906064906 | 15 | 337 | 27.4 | 45.1 | 0.10 | 1.14 | 1.14 | 91 | 1001.9 |
| 20260906064406 | 15 | 347 | 27.4 | 46.7 | 0.08 | 1.12 | 1.12 | 91 | 1001.8 |
| 20260906063907 | 15 | 349 | 22.5 | 45.1 | 0.05 | 1.09 | 1.09 | 91 | 1002.0 |
| 20260906063407 | 15 | 346 | 30.6 | 61.2 | 0.03 | 1.07 | 1.07 | 91 | 1001.9 |
| 20260906062407 | 15 | 353 | 29.0 | 49.9 | 0.00 | 1.04 | 1.04 | 90 | 1001.9 |
| 20260906061408 | 15 | 344 | 27.4 | 56.3 | 0.00 | 1.04 | 1.04 | 91 | 1001.8 |
| 20260906060906 | 15 | 347 | 30.6 | 41.8 | 0.00 | 1.04 | 1.04 | 91 | 1002.0 |
| 20260906060407 | 15 | 349 | 25.7 | 46.7 | 0.00 | 1.04 | 1.04 | 91 | 1002.1 |
| 20260906055906 | 15 | 351 | 22.5 | 41.8 | 0.00 | 1.04 | 1.04 | 90 | 1002.0 |
| 20260906055407 | 15 | 328 | 22.5 | 41.8 | 0.00 | 1.04 | 1.04 | 91 | 1002.1 |
| 20260906054908 | 15 | 344 | 22.5 | 49.9 | 0.00 | 1.04 | 1.04 | 90 | 1002.1 |
| 20260906052906 | 15 | 344 | 25.7 | 48.3 | 0.00 | 1.04 | 1.04 | 91 | 1002.4 |
| 20260906052407 | 15 | 348 | 22.5 | 40.2 | 0.00 | 1.04 | 1.04 | 91 | 1002.5 |
| 20260906051907 | 15 | 346 | 27.4 | 70.8 | 0.00 | 1.04 | 1.04 | 91 | 1002.5 |
| 20260906051406 | 15 | 358 | 27.4 | 56.3 | 0.00 | 1.04 | 1.04 | 90 | 1002.4 |
| 20260906050906 | 15 | 338 | 29.0 | 56.3 | 0.00 | 1.04 | 1.04 | 90 | 1002.5 |
| 20260906050406 | 15 | 341 | 27.4 | 53.1 | 0.00 | 1.04 | 1.04 | 90 | 1002.5 |
| 20260906045906 | 15 | 357 | 25.7 | 46.7 | 0.00 | 1.04 | 1.04 | 90 | 1002.4 |
| 20260906045407 | 15 | 3 | 27.4 | 49.9 | 0.00 | 1.04 | 1.04 | 90 | 1002.4 |
| 20260906044407 | 15 | 341 | 27.4 | 56.3 | 0.00 | 1.04 | 1.04 | 90 | 1002.3 |
| 20260906043907 | 15 | 349 | 30.6 | 48.3 | 0.00 | 1.04 | 1.04 | 90 | 1002.4 |
| 20260906043406 | 15 | 355 | 33.8 | 57.9 | 0.00 | 1.04 | 1.04 | 90 | 1002.3 |
| 20260906042906 | 15 | 354 | 30.6 | 61.2 | 0.00 | 1.04 | 1.04 | 90 | 1002.4 |
| 20260906041907 | 15 | 350 | 29.0 | 56.3 | 0.00 | 1.04 | 1.04 | 90 | 1002.5 |
| 20260906041406 | 15 | 346 | 27.4 | 48.3 | 0.00 | 1.04 | 1.04 | 90 | 1002.6 |
| 20260906040907 | 15 | 339 | 32.2 | 56.3 | 0.00 | 1.04 | 1.04 | 91 | 1002.6 |
| 20260906040406 | 15 | 353 | 32.2 | 57.9 | 0.00 | 1.04 | 1.04 | 91 | 1002.6 |
| 20260906035906 | 15 | 336 | 25.7 | 48.3 | 0.00 | 1.04 | 1.04 | 91 | 1002.7 |
| 20260906035406 | 15 | 353 | 29.0 | 59.5 | 0.00 | 1.04 | 1.04 | 91 | 1002.7 |
| 20260906034907 | 15 | 346 | 32.2 | 53.1 | 0.00 | 1.04 | 1.04 | 91 | 1002.9 |
| 20260906034406 | 14 | 349 | 32.2 | 51.5 | 0.03 | 1.04 | 1.04 | 91 | 1003.0 |
| 20260906033906 | 14 | 336 | 27.4 | 56.3 | 0.05 | 1.04 | 1.04 | 91 | 1003.1 |
| 20260906033406 | 14 | 346 | 27.4 | 56.3 | 0.05 | 1.04 | 1.04 | 91 | 1003.0 |
| 20260906032907 | 14 | 348 | 32.2 | 56.3 | 0.05 | 1.04 | 1.04 | 91 | 1003.3 |
| 20260906032407 | 14 | 351 | 32.2 | 57.9 | 0.05 | 1.04 | 1.04 | 91 | 1003.2 |
| 20260906031906 | 14 | 341 | 33.8 | 56.3 | 0.08 | 1.04 | 1.04 | 91 | 1003.1 |
| 20260906031406 | 14 | 354 | 32.2 | 51.5 | 0.10 | 1.04 | 1.04 | 91 | 1003.2 |
| 20260906030907 | 14 | 352 | 32.2 | 59.5 | 0.15 | 1.04 | 1.04 | 91 | 1003.4 |
| 20260906025907 | 14 | 343 | 25.7 | 46.7 | 0.18 | 1.04 | 1.04 | 90 | 1003.4 |
| 20260906024906 | 14 | 335 | 29.0 | 51.5 | 0.18 | 1.04 | 1.04 | 90 | 1003.4 |
| 20260906024407 | 13 | 348 | 27.4 | 56.3 | 0.20 | 1.02 | 1.02 | 90 | 1003.5 |
| 20260906023906 | 13 | 358 | 25.7 | 64.4 | 0.23 | 0.99 | 0.99 | 90 | 1003.7 |
| 20260906023407 | 13 | 350 | 24.1 | 45.1 | 0.23 | 0.99 | 0.99 | 90 | 1003.6 |
| 20260906022906 | 13 | 344 | 29.0 | 48.3 | 0.25 | 0.99 | 0.99 | 90 | 1003.5 |
| 20260906022406 | 13 | 354 | 30.6 | 48.3 | 0.25 | 0.99 | 0.99 | 90 | 1003.6 |
| 20260906021907 | 13 | 344 | 27.4 | 45.1 | 0.23 | 0.97 | 0.97 | 90 | 1003.5 |
| 20260906021406 | 13 | 336 | 32.2 | 57.9 | 0.23 | 0.94 | 0.94 | 90 | 1003.6 |
| 20260906020906 | 13 | 348 | 27.4 | 46.7 | 0.15 | 0.89 | 0.89 | 89 | 1003.8 |
| 20260906020407 | 13 | 347 | 25.7 | 53.1 | 0.15 | 0.86 | 0.86 | 89 | 1003.9 |
| 20260906015407 | 13 | 351 | 27.4 | 56.3 | 0.15 | 0.86 | 0.86 | 89 | 1004.1 |
| 20260906013407 | 13 | 358 | 22.5 | 61.2 | 0.08 | 0.76 | 0.76 | 88 | 1004.8 |
| 20260906012407 | 13 | 348 | 20.9 | 49.9 | 0.13 | 0.71 | 0.71 | 87 | 1005.0 |
| 20260906011906 | 13 | 341 | 27.4 | 46.7 | 0.13 | 0.71 | 0.71 | 88 | 1005.5 |
| 20260906011407 | 13 | 355 | 29.0 | 56.3 | 0.15 | 0.71 | 0.71 | 88 | 1005.6 |
| 20260906010908 | 13 | 350 | 27.4 | 49.9 | 0.15 | 0.71 | 0.71 | 89 | 1005.7 |
| 20260906005907 | 13 | 357 | 20.9 | 33.8 | 0.20 | 0.71 | 0.71 | 89 | 1005.9 |
| 20260906004407 | 13 | 351 | 20.9 | 35.4 | 0.23 | 0.71 | 0.71 | 90 | 1006.4 |
| 20260906003907 | 13 | 348 | 20.9 | 41.8 | 0.23 | 0.69 | 0.69 | 90 | 1006.3 |
| 20260906003407 | 13 | 349 | 20.9 | 33.8 | 0.23 | 0.69 | 0.69 | 90 | 1006.5 |
| 20260906002906 | 13 | 344 | 29.0 | 45.1 | 0.23 | 0.64 | 0.64 | 90 | 1006.6 |
| 20260906002408 | 13 | 356 | 19.3 | 33.8 | 0.20 | 0.61 | 0.61 | 90 | 1006.8 |
| 20260906001907 | 13 | 347 | 12.9 | 25.7 | 0.23 | 0.61 | 0.61 | 90 | 1007.0 |
| 20260906001408 | 13 | 341 | 17.7 | 32.2 | 0.23 | 0.58 | 0.58 | 90 | 1007.4 |
| 20260906000907 | 13 | 355 | 14.5 | 25.7 | 0.23 | 0.56 | 0.56 | 90 | 1007.7 |
| 20260906000407 | 13 | 350 | 16.1 | 24.1 | 0.23 | 0.51 | 0.51 | 90 | 1007.6 |
| 20260905235908 | 13 | 352 | 16.1 | 35.4 | 0.23 | 0.51 | 0.51 | 90 | 1007.3 |
| 20260905235407 | 13 | 0 | 16.1 | 32.2 | 0.20 | 0.51 | 0.51 | 90 | 1007.3 |
| 20260905234907 | 13 | 342 | 14.5 | 29.0 | 0.18 | 0.48 | 0.48 | 90 | 1007.6 |
| 20260905234406 | 13 | 351 | 14.5 | 24.1 | 0.18 | 0.48 | 0.48 | 90 | 1008.0 |
| 20260905233906 | 13 | 348 | 14.5 | 32.2 | 0.15 | 0.46 | 0.46 | 90 | 1008.4 |
| 20260905233407 | 13 | 350 | 17.7 | 38.6 | 0.15 | 0.43 | 0.43 | 90 | 1008.6 |
| 20260905232907 | 13 | 343 | 19.3 | 45.1 | 0.13 | 0.43 | 0.43 | 90 | 1008.8 |
| 20260905232407 | 13 | 351 | 17.7 | 41.8 | 0.10 | 0.41 | 0.41 | 90 | 1008.7 |
| 20260905231906 | 13 | 333 | 16.1 | 33.8 | 0.08 | 0.38 | 0.38 | 90 | 1008.8 |
| 20260905230907 | 13 | 346 | 17.7 | 32.2 | 0.03 | 0.33 | 0.33 | 89 | 1009.0 |
| 20260905225907 | 13 | 348 | 11.3 | 29.0 | 0.00 | 0.30 | 0.30 | 89 | 1008.9 |
| 20260905225407 | 13 | 351 | 14.5 | 29.0 | 0.00 | 0.30 | 0.30 | 90 | 1009.0 |
| 20260905224406 | 13 | 353 | 14.5 | 32.2 | 0.00 | 0.30 | 0.30 | 90 | 1009.1 |
| 20260905223907 | 13 | 341 | 14.5 | 32.2 | 0.00 | 0.30 | 0.30 | 90 | 1009.1 |
| 20260905223408 | 13 | 343 | 16.1 | 35.4 | 0.03 | 0.30 | 0.30 | 90 | 1009.1 |
| 20260905222906 | 13 | 341 | 16.1 | 33.8 | 0.03 | 0.30 | 0.30 | 90 | 1009.1 |
| 20260905222406 | 13 | 352 | 19.3 | 29.0 | 0.03 | 0.30 | 0.30 | 90 | 1009.2 |
| 20260905221906 | 13 | 351 | 16.1 | 32.2 | 0.03 | 0.30 | 0.30 | 90 | 1009.3 |
| 20260905221407 | 13 | 333 | 14.5 | 27.4 | 0.03 | 0.30 | 0.30 | 90 | 1009.3 |
| 20260905220907 | 13 | 345 | 14.5 | 24.1 | 0.03 | 0.30 | 0.30 | 90 | 1009.4 |
| 20260905220407 | 13 | 334 | 14.5 | 29.0 | 0.03 | 0.30 | 0.30 | 90 | 1009.5 |
| 20260905215907 | 13 | 348 | 11.3 | 29.0 | 0.03 | 0.30 | 0.30 | 90 | 1009.6 |
| 20260905215407 | 13 | 352 | 12.9 | 24.1 | 0.03 | 0.30 | 0.30 | 90 | 1009.7 |
| 20260905214907 | 13 | 336 | 16.1 | 32.2 | 0.05 | 0.30 | 0.30 | 90 | 1009.7 |
| 20260905214406 | 13 | 343 | 12.9 | 22.5 | 0.05 | 0.30 | 0.30 | 90 | 1009.7 |
| 20260905213907 | 13 | 346 | 12.9 | 29.0 | 0.08 | 0.30 | 0.30 | 90 | 1009.9 |
| 20260905213407 | 13 | 346 | 16.1 | 29.0 | 0.05 | 0.28 | 0.28 | 90 | 1010.0 |
| 20260905212907 | 13 | 326 | 14.5 | 24.1 | 0.05 | 0.28 | 0.28 | 90 | 1010.1 |
| 20260905211911 | 13 | 342 | 19.3 | 33.8 | 0.08 | 0.28 | 0.28 | 90 | 1010.2 |
| 20260905211407 | 13 | 356 | 12.9 | 27.4 | 0.08 | 0.28 | 0.28 | 90 | 1010.3 |
| 20260905210906 | 13 | 348 | 16.1 | 32.2 | 0.10 | 0.28 | 0.28 | 90 | 1010.3 |
| 20260905210406 | 13 | 349 | 16.1 | 32.2 | 0.13 | 0.28 | 0.28 | 90 | 1010.4 |
| 20260905205907 | 13 | 349 | 19.3 | 29.0 | 0.13 | 0.28 | 0.28 | 90 | 1010.5 |
| 20260905205407 | 13 | 351 | 19.3 | 29.0 | 0.13 | 0.28 | 0.28 | 90 | 1010.7 |
| 20260905204907 | 13 | 346 | 16.1 | 32.2 | 0.13 | 0.25 | 0.25 | 90 | 1010.7 |
| 20260905204406 | 13 | 346 | 16.1 | 27.4 | 0.10 | 0.23 | 0.23 | 90 | 1010.8 |
| 20260905203907 | 13 | 354 | 19.3 | 32.2 | 0.10 | 0.23 | 0.23 | 90 | 1010.9 |
| 20260905203406 | 13 | 348 | 19.3 | 33.8 | 0.10 | 0.23 | 0.23 | 90 | 1010.9 |
| 20260905202907 | 13 | 345 | 16.1 | 25.7 | 0.13 | 0.23 | 0.23 | 90 | 1011.0 |
| 20260905202406 | 13 | 341 | 14.5 | 29.0 | 0.15 | 0.23 | 0.23 | 90 | 1011.0 |
| 20260905201907 | 13 | 348 | 19.3 | 29.0 | 0.13 | 0.20 | 0.20 | 90 | 1011.0 |
| 20260905201407 | 13 | 340 | 14.5 | 33.8 | 0.13 | 0.20 | 0.20 | 90 | 1010.9 |
| 20260905200907 | 13 | 320 | 16.1 | 29.0 | 0.10 | 0.18 | 0.18 | 90 | 1010.9 |
| 20260905200407 | 13 | 343 | 19.3 | 33.8 | 0.15 | 0.15 | 0.15 | 90 | 1011.0 |
| 20260905195907 | 13 | 349 | 17.7 | 29.0 | 0.15 | 0.15 | 0.15 | 90 | 1011.0 |
| 20260905195406 | 13 | 332 | 16.1 | 32.2 | 0.15 | 0.15 | 0.15 | 90 | 1011.0 |
| 20260905194907 | 13 | 343 | 14.5 | 24.1 | 0.15 | 0.15 | 0.15 | 90 | 1011.1 |
| 20260905194407 | 13 | 347 | 14.5 | 27.4 | 0.15 | 0.15 | 0.15 | 90 | 1011.0 |
| 20260905193907 | 13 | 335 | 11.3 | 29.0 | 0.13 | 0.13 | 0.13 | 90 | 1011.0 |
| 20260905193406 | 13 | 348 | 16.1 | 32.2 | 0.13 | 0.13 | 0.13 | 90 | 1011.1 |
| 20260905190907 | 13 | 343 | 17.7 | 29.0 | 0.08 | 0.08 | 0.08 | 90 | 1011.0 |
| 20260905190406 | 13 | 340 | 14.5 | 25.7 | 0.00 | 0.00 | 0.00 | 90 | 1011.0 |
| 20260905185906 | 13 | 346 | 12.9 | 27.4 | 0.00 | 0.00 | 0.00 | 90 | 1011.1 |
| 20260905185407 | 13 | 351 | 14.5 | 32.2 | 0.00 | 0.00 | 0.00 | 90 | 1011.0 |
| 20260905184406 | 13 | 348 | 12.9 | 24.1 | 0.00 | 0.00 | 0.00 | 90 | 1011.2 |
| 20260905183406 | 13 | 352 | 11.3 | 24.1 | 0.00 | 0.00 | 0.00 | 89 | 1011.2 |
| 20260905182906 | 13 | 335 | 9.7 | 19.3 | 0.00 | 0.00 | 0.00 | 89 | 1011.2 |
| 20260905182406 | 13 | 345 | 11.3 | 20.9 | 0.00 | 0.00 | 0.00 | 89 | 1011.2 |
| 20260905180906 | 13 | 345 | 8.0 | 19.3 | 0.00 | 0.00 | 0.00 | 89 | 1011.1 |
| 20260905180407 | 13 | 342 | 8.0 | 19.3 | 0.00 | 0.00 | 0.00 | 89 | 1011.0 |
| 20260905175907 | 13 | 340 | 6.4 | 25.7 | 0.00 | 0.00 | 0.00 | 89 | 1011.0 |
| 20260905175406 | 13 | 350 | 14.5 | 22.5 | 0.00 | 0.00 | 0.00 | 89 | 1011.2 |
| 20260905174406 | 13 | 340 | 11.3 | 25.7 | 0.00 | 0.00 | 0.00 | 89 | 1011.2 |
| 20260905173907 | 13 | 351 | 12.9 | 22.5 | 0.00 | 0.00 | 0.00 | 89 | 1011.2 |
| 20260905173407 | 13 | 348 | 14.5 | 20.9 | 0.00 | 0.00 | 0.00 | 89 | 1011.1 |
| 20260905172906 | 13 | 351 | 12.9 | 24.1 | 0.00 | 0.00 | 0.00 | 89 | 1011.0 |
| 20260905172406 | 13 | 340 | 14.5 | 22.5 | 0.00 | 0.00 | 0.00 | 89 | 1011.0 |
| 20260905171907 | 13 | 338 | 16.1 | 32.2 | 0.00 | 0.00 | 0.00 | 89 | 1011.0 |
| 20260905170906 | 13 | 345 | 14.5 | 29.0 | 0.00 | 0.00 | 0.00 | 89 | 1011.1 |
| 20260905170407 | 13 | 347 | 12.9 | 22.5 | 0.00 | 0.00 | 0.00 | 89 | 1011.1 |
| 20260905165906 | 13 | 339 | 9.7 | 25.7 | 0.00 | 0.00 | 0.00 | 89 | 1011.2 |
| 20260905165406 | 13 | 350 | 14.5 | 32.2 | 0.00 | 0.00 | 0.00 | 89 | 1011.2 |
| 20260905164906 | 13 | 342 | 14.5 | 24.1 | 0.00 | 0.00 | 0.00 | 89 | 1011.1 |
| 20260905163906 | 13 | 329 | 11.3 | 27.4 | 0.00 | 0.00 | 0.00 | 89 | 1011.0 |
| 20260905163406 | 13 | 345 | 16.1 | 32.2 | 0.00 | 0.00 | 0.00 | 89 | 1010.8 |
| 20260905162906 | 13 | 335 | 8.0 | 25.7 | 0.00 | 0.00 | 0.00 | 89 | 1010.7 |
| 20260905162406 | 12 | 347 | 8.0 | 22.5 | 0.00 | 0.00 | 0.00 | 89 | 1010.7 |
| 20260905161906 | 12 | 326 | 8.0 | 20.9 | 0.00 | 0.00 | 0.00 | 89 | 1010.6 |